QPF
0.02 0.02 0.03 0.06 0.09 0.12 0.12 0.08 0.06 0.06 0.07 0.07 0.06 0.06 0.07 0.08 0.07 0.06 0.05 0.05 0.05 0.08 0.10 0.10 0.09 0.07 0.07 0.06 0.05 0.04 0.04 0.04 0.05 0.05 0.04 0.03 0.01 0.02 0.02 0.02 0.03 0.04 0.03
0.03 0.01 0.02 0.02 0.02 0.03 0.07 0.07 0.05 0.05 0.07 0.08 0.09 0.09 0.10 0.10 0.07 0.05 0.06 0.06 0.07 0.08 0.07 0.07 0.06 0.06 0.05 0.05 0.04 0.04 0.04 0.04 0.05 0.06 0.06 0.04 0.03 0.03 0.02 0.03 0.03 0.03 0.03
0.05 0.04 0.02 0.01 0.01 0.02 0.02 0.03 0.04 0.05 0.08 0.10 0.09 0.10 0.10 0.08 0.08 0.08 0.08 0.07 0.06 0.06 0.05 0.04 0.04 0.03 0.03 0.04 0.04 0.04 0.04 0.04 0.05 0.05 0.05 0.05 0.04 0.04 0.03 0.03 0.03 0.03 0.03
0.04 0.04 0.02 0.03 0.04 0.03 0.01 0.02 0.02 0.04 0.07 0.08 0.08 0.08 0.07 0.08 0.10 0.09 0.09 0.06 0.06 0.05 0.04 0.03 0.02 0.03 0.03 0.04 0.04 0.05 0.05 0.05 0.05 0.05 0.06 0.07 0.06 0.07 0.05 0.04 0.04 0.04 0.03
0.07 0.04 0.03 0.03 0.04 0.05 0.02 0.02 0.03 0.04 0.06 0.08 0.08 0.09 0.08 0.10 0.11 0.10 0.09 0.07 0.08 0.06 0.04 0.03 0.03 0.04 0.04 0.04 0.04 0.04 0.05 0.06 0.07 0.07 0.08 0.09 0.08 0.08 0.06 0.04 0.04 0.05 0.04
0.06 0.03 0.02 0.02 0.04 0.04 0.02 0.03 0.04 0.05 0.06 0.06 0.07 0.08 0.08 0.10 0.11 0.09 0.09 0.10 0.10 0.08 0.06 0.06 0.06 0.04 0.03 0.03 0.04 0.04 0.03 0.04 0.05 0.05 0.06 0.06 0.06 0.05 0.05 0.05 0.05 0.04 0.03
0.03 0.02 0.01 0.02 0.02 0.02 0.03 0.03 0.04 0.06 0.06 0.06 0.08 0.08 0.08 0.10 0.11 0.09 0.09 0.12 0.13 0.11 0.08 0.05 0.04 0.03 0.03 0.04 0.05 0.04 0.04 0.04 0.04 0.05 0.06 0.06 0.05 0.05 0.04 0.05 0.05 0.04 0.03
0.02 0.02 0.02 0.02 0.02 0.02 0.02 0.02 0.02 0.04 0.05 0.06 0.07 0.07 0.07 0.08 0.08 0.08 0.08 0.09 0.09 0.08 0.06 0.05 0.04 0.03 0.02 0.03 0.04 0.04 0.04 0.04 0.04 0.04 0.05 0.05 0.04 0.04 0.04 0.06 0.07 0.06 0.05
0.03 0.02 0.02 0.03 0.03 0.02 0.01 0.02 0.03 0.03 0.05 0.06 0.05 0.06 0.06 0.08 0.08 0.08 0.07 0.07 0.06 0.05 0.04 0.04 0.04 0.03 0.03 0.03 0.04 0.04 0.04 0.04 0.04 0.03 0.05 0.06 0.05 0.04 0.04 0.04 0.06 0.08 0.08
0.02 0.02 0.02 0.03 0.03 0.02 0.02 0.03 0.04 0.03 0.04 0.05 0.06 0.05 0.05 0.06 0.06 0.07 0.06 0.06 0.06 0.05 0.04 0.03 0.03 0.03 0.03 0.04 0.05 0.04 0.04 0.04 0.04 0.05 0.06 0.07 0.06 0.05 0.05 0.05 0.05 0.08 0.09
0.03 0.03 0.03 0.03 0.02 0.02 0.03 0.04 0.03 0.03 0.03 0.04 0.04 0.03 0.03 0.04 0.05 0.05 0.05 0.05 0.05 0.05 0.04 0.04 0.05 0.04 0.04 0.05 0.06 0.04 0.04 0.04 0.05 0.05 0.05 0.06 0.07 0.06 0.05 0.06 0.06 0.08 0.10
0.04 0.03 0.03 0.04 0.04 0.03 0.02 0.03 0.03 0.02 0.03 0.03 0.04 0.04 0.04 0.05 0.05 0.05 0.05 0.04 0.04 0.06 0.07 0.07 0.07 0.05 0.04 0.04 0.05 0.05 0.04 0.03 0.03 0.03 0.04 0.04 0.05 0.06 0.05 0.06 0.06 0.08 0.11
0.03 0.04 0.05 0.05 0.05 0.03 0.03 0.02 0.02 0.02 0.02 0.02 0.03 0.04 0.05 0.05 0.04 0.05 0.05 0.07 0.08 0.08 0.09 0.09 0.07 0.05 0.04 0.04 0.04 0.03 0.04 0.03 0.03 0.03 0.03 0.03 0.04 0.05 0.06 0.07 0.07 0.08 0.09
0.03 0.04 0.06 0.03 0.02 0.02 0.02 0.02 0.02 0.02 0.01 0.01 0.02 0.04 0.04 0.05 0.05 0.05 0.07 0.09 0.11 0.12 0.11 0.09 0.07 0.06 0.06 0.06 0.04 0.04 0.04 0.04 0.03 0.02 0.03 0.04 0.04 0.05 0.05 0.05 0.06 0.08 0.09
0.03 0.04 0.04 0.03 0.03 0.02 0.02 0.02 0.03 0.03 0.02 0.02 0.02 0.03 0.03 0.04 0.06 0.07 0.09 0.11 0.10 0.10 0.09 0.07 0.06 0.05 0.06 0.05 0.05 0.05 0.05 0.05 0.04 0.03 0.04 0.03 0.03 0.03 0.03 0.03 0.04 0.06 0.08
0.04 0.05 0.03 0.03 0.03 0.03 0.04 0.03 0.03 0.03 0.02 0.02 0.03 0.04 0.04 0.05 0.06 0.07 0.08 0.08 0.07 0.06 0.07 0.08 0.08 0.06 0.05 0.05 0.05 0.04 0.04 0.04 0.04 0.05 0.04 0.03 0.02 0.02 0.02 0.02 0.03 0.03 0.04
0.05 0.05 0.04 0.03 0.02 0.03 0.03 0.03 0.03 0.03 0.03 0.02 0.02 0.03 0.05 0.05 0.06 0.06 0.06 0.06 0.06 0.06 0.09 0.11 0.10 0.08 0.06 0.05 0.03 0.02 0.02 0.03 0.05 0.07 0.07 0.05 0.03 0.03 0.04 0.03 0.03 0.03 0.03
0.04 0.05 0.04 0.03 0.03 0.02 0.01 0.01 0.01 0.02 0.02 0.02 0.02 0.03 0.05 0.05 0.06 0.06 0.05 0.05 0.05 0.06 0.08 0.09 0.09 0.10 0.08 0.06 0.03 0.02 0.01 0.02 0.04 0.06 0.07 0.06 0.05 0.05 0.05 0.04 0.05 0.05 0.05
0.03 0.04 0.05 0.04 0.04 0.02 0.02 0.01 0.01 0.02 0.02 0.02 0.03 0.04 0.04 0.04 0.05 0.06 0.05 0.05 0.06 0.06 0.07 0.08 0.08 0.08 0.08 0.07 0.05 0.04 0.03 0.02 0.03 0.04 0.04 0.05 0.05 0.04 0.04 0.03 0.04 0.05 0.05
0.03 0.04 0.05 0.04 0.04 0.03 0.02 0.02 0.02 0.02 0.03 0.04 0.04 0.03 0.03 0.04 0.04 0.05 0.05 0.05 0.06 0.06 0.06 0.07 0.07 0.07 0.07 0.06 0.06 0.06 0.05 0.04 0.03 0.04 0.05 0.05 0.04 0.03 0.02 0.02 0.03 0.04 0.04
0.04 0.04 0.05 0.04 0.05 0.04 0.02 0.03 0.03 0.03 0.03 0.04 0.05 0.04 0.04 0.05 0.04 0.05 0.06 0.06 0.06 0.06 0.06 0.05 0.06 0.06 0.06 0.06 0.06 0.06 0.05 0.05 0.06 0.06 0.06 0.05 0.04 0.02 0.02 0.02 0.02 0.02 0.02
0.04 0.04 0.04 0.04 0.05 0.04 0.02 0.04 0.03 0.03 0.03 0.03 0.04 0.05 0.05 0.03 0.03 0.06 0.07 0.06 0.05 0.06 0.05 0.05 0.05 0.05 0.06 0.05 0.05 0.05 0.06 0.07 0.07 0.06 0.05 0.04 0.03 0.02 0.01 0.02 0.01 0.01 0.01
0.04 0.05 0.05 0.07 0.06 0.05 0.04 0.04 0.04 0.03 0.03 0.03 0.04 0.05 0.05 0.05 0.07 0.09 0.08 0.05 0.05 0.05 0.04 0.04 0.05 0.05 0.04 0.03 0.03 0.04 0.05 0.06 0.06 0.05 0.04 0.03 0.02 0.02 0.02 0.02 0.02 0.02 0.02
0.04 0.05 0.07 0.07 0.07 0.06 0.05 0.05 0.04 0.04 0.04 0.04 0.05 0.04 0.05 0.07 0.10 0.09 0.06 0.04 0.03 0.03 0.05 0.05 0.05 0.04 0.04 0.02 0.01 0.02 0.03 0.04 0.04 0.03 0.03 0.03 0.03 0.03 0.03 0.03 0.03 0.03 0.04
0.04 0.05 0.06 0.05 0.04 0.04 0.03 0.04 0.04 0.04 0.05 0.05 0.05 0.04 0.05 0.08 0.11 0.08 0.04 0.03 0.03 0.03 0.05 0.06 0.03 0.02 0.02 0.02 0.01 0.01 0.01 0.02 0.02 0.02 0.03 0.04 0.04 0.04 0.04 0.04 0.05 0.07 0.07
0.04 0.04 0.04 0.03 0.02 0.02 0.01 0.02 0.03 0.04 0.04 0.05 0.06 0.06 0.07 0.07 0.05 0.03 0.02 0.02 0.02 0.02 0.04 0.05 0.03 0.02 0.01 0.01 0.01 0.01 0.01 0.01 0.02 0.02 0.03 0.04 0.05 0.05 0.05 0.06 0.07 0.08 0.08
MSLP
1003.36 1003.82 1004.30 1004.77 1005.20 1005.61 1006.00 1006.41 1006.86 1007.39 1007.99 1008.64 1009.30 1009.94 1010.50 1010.98 1011.35 1011.63 1011.84 1012.02 1012.21 1012.42 1012.68 1012.98 1013.29 1013.58 1013.83 1013.99 1014.06 1014.03 1013.91 1013.73 1013.51 1013.28 1013.07 1012.89 1012.75 1012.64 1012.55 1012.48 1012.42 1012.37 1012.32
1003.02 1003.57 1004.16 1004.72 1005.22 1005.67 1006.08 1006.49 1006.94 1007.46 1008.06 1008.72 1009.40 1010.07 1010.67 1011.17 1011.55 1011.82 1012.01 1012.15 1012.29 1012.46 1012.66 1012.91 1013.17 1013.43 1013.66 1013.81 1013.88 1013.87 1013.80 1013.67 1013.52 1013.38 1013.26 1013.15 1013.07 1013.00 1012.92 1012.82 1012.71 1012.58 1012.45
1002.75 1003.41 1004.10 1004.74 1005.31 1005.80 1006.22 1006.61 1007.04 1007.52 1008.09 1008.72 1009.40 1010.06 1010.67 1011.18 1011.58 1011.85 1012.04 1012.18 1012.30 1012.44 1012.61 1012.82 1013.06 1013.29 1013.49 1013.64 1013.72 1013.74 1013.70 1013.64 1013.56 1013.50 1013.46 1013.43 1013.40 1013.36 1013.28 1013.16 1012.99 1012.79 1012.57
1002.61 1003.35 1004.12 1004.84 1005.47 1005.98 1006.40 1006.77 1007.15 1007.58 1008.09 1008.67 1009.30 1009.94 1010.54 1011.05 1011.46 1011.76 1011.96 1012.12 1012.25 1012.39 1012.55 1012.75 1012.97 1013.18 1013.36 1013.50 1013.59 1013.62 1013.63 1013.62 1013.61 1013.62 1013.64 1013.67 1013.68 1013.66 1013.57 1013.42 1013.20 1012.92 1012.63
1002.63 1003.42 1004.25 1005.02 1005.68 1006.21 1006.62 1006.97 1007.29 1007.65 1008.08 1008.60 1009.17 1009.76 1010.33 1010.84 1011.26 1011.59 1011.83 1012.01 1012.17 1012.32 1012.50 1012.69 1012.90 1013.10 1013.27 1013.40 1013.49 1013.54 1013.57 1013.59 1013.63 1013.68 1013.75 1013.82 1013.86 1013.84 1013.74 1013.56 1013.30 1012.96 1012.60
1002.83 1003.63 1004.48 1005.28 1005.96 1006.50 1006.90 1007.21 1007.48 1007.78 1008.14 1008.58 1009.08 1009.62 1010.15 1010.65 1011.07 1011.42 1011.68 1011.90 1012.09 1012.26 1012.45 1012.65 1012.85 1013.03 1013.19 1013.32 1013.40 1013.45 1013.50 1013.54 1013.59 1013.67 1013.76 1013.84 1013.88 1013.86 1013.75 1013.54 1013.24 1012.87 1012.46
1003.17 1003.96 1004.80 1005.60 1006.28 1006.82 1007.22 1007.52 1007.76 1008.01 1008.30 1008.67 1009.10 1009.58 1010.07 1010.54 1010.95 1011.30 1011.58 1011.82 1012.02 1012.21 1012.40 1012.60 1012.79 1012.97 1013.11 1013.22 1013.30 1013.34 1013.38 1013.42 1013.47 1013.54 1013.62 1013.69 1013.72 1013.69 1013.57 1013.36 1013.05 1012.66 1012.24
1003.62 1004.36 1005.17 1005.96 1006.64 1007.19 1007.60 1007.90 1008.12 1008.34 1008.60 1008.91 1009.28 1009.70 1010.14 1010.56 1010.94 1011.27 1011.54 1011.77 1011.98 1012.16 1012.35 1012.53 1012.71 1012.87 1013.00 1013.09 1013.15 1013.18 1013.20 1013.21 1013.24 1013.29 1013.34 1013.38 1013.39 1013.35 1013.22 1013.01 1012.71 1012.34 1011.93
1004.10 1004.78 1005.56 1006.33 1007.02 1007.58 1008.01 1008.32 1008.56 1008.77 1009.00 1009.27 1009.59 1009.95 1010.33 1010.70 1011.02 1011.31 1011.56 1011.76 1011.94 1012.10 1012.26 1012.43 1012.58 1012.72 1012.83 1012.91 1012.94 1012.95 1012.94 1012.92 1012.91 1012.91 1012.92 1012.93 1012.91 1012.85 1012.72 1012.53 1012.26 1011.93 1011.55
1004.53 1005.18 1005.93 1006.68 1007.38 1007.96 1008.42 1008.76 1009.02 1009.24 1009.47 1009.72 1009.99 1010.30 1010.61 1010.90 1011.18 1011.40 1011.59 1011.75 1011.89 1012.02 1012.15 1012.28 1012.41 1012.52 1012.61 1012.66 1012.68 1012.66 1012.61 1012.55 1012.49 1012.44 1012.40 1012.36 1012.31 1012.23 1012.12 1011.94 1011.72 1011.44 1011.12
1004.85 1005.48 1006.22 1006.97 1007.68 1008.28 1008.77 1009.16 1009.45 1009.69 1009.92 1010.15 1010.39 1010.64 1010.89 1011.12 1011.32 1011.49 1011.62 1011.72 1011.81 1011.89 1011.99 1012.09 1012.19 1012.28 1012.35 1012.38 1012.37 1012.32 1012.23 1012.13 1012.01 1011.90 1011.80 1011.71 1011.63 1011.54 1011.42 1011.28 1011.10 1010.87 1010.61
1005.03 1005.67 1006.40 1007.17 1007.89 1008.52 1009.04 1009.46 1009.78 1010.04 1010.27 1010.48 1010.70 1010.90 1011.10 1011.28 1011.42 1011.53 1011.60 1011.66 1011.70 1011.75 1011.81 1011.88 1011.95 1012.02 1012.07 1012.07 1012.04 1011.95 1011.82 1011.67 1011.50 1011.33 1011.17 1011.03 1010.91 1010.79 1010.68 1010.55 1010.40 1010.22 1010.01
1005.06 1005.73 1006.48 1007.26 1007.99 1008.64 1009.19 1009.62 1009.96 1010.23 1010.46 1010.66 1010.85 1011.03 1011.19 1011.32 1011.43 1011.50 1011.54 1011.56 1011.58 1011.60 1011.63 1011.67 1011.72 1011.76 1011.78 1011.76 1011.69 1011.56 1011.40 1011.19 1010.96 1010.74 1010.52 1010.33 1010.17 1010.02 1009.90 1009.78 1009.64 1009.49 1009.31
1004.96 1005.67 1006.46 1007.25 1008.00 1008.66 1009.20 1009.64 1009.98 1010.25 1010.47 1010.66 1010.83 1011.00 1011.14 1011.26 1011.35 1011.41 1011.44 1011.45 1011.45 1011.45 1011.46 1011.48 1011.50 1011.50 1011.49 1011.43 1011.32 1011.16 1010.94 1010.69 1010.42 1010.14 1009.87 1009.63 1009.42 1009.25 1009.10 1008.96 1008.82 1008.67 1008.50
1004.79 1005.55 1006.36 1007.17 1007.92 1008.56 1009.10 1009.53 1009.86 1010.11 1010.32 1010.50 1010.67 1010.83 1010.98 1011.11 1011.22 1011.28 1011.32 1011.34 1011.34 1011.33 1011.31 1011.30 1011.28 1011.24 1011.18 1011.08 1010.92 1010.71 1010.46 1010.16 1009.84 1009.51 1009.20 1008.92 1008.68 1008.46 1008.28 1008.12 1007.96 1007.78 1007.60
1004.62 1005.41 1006.24 1007.05 1007.78 1008.42 1008.93 1009.33 1009.64 1009.88 1010.07 1010.25 1010.43 1010.60 1010.77 1010.93 1011.06 1011.16 1011.22 1011.24 1011.24 1011.21 1011.17 1011.11 1011.04 1010.95 1010.83 1010.67 1010.46 1010.21 1009.90 1009.57 1009.21 1008.86 1008.52 1008.20 1007.93 1007.68 1007.47 1007.27 1007.07 1006.86 1006.63
1004.50 1005.32 1006.14 1006.94 1007.66 1008.26 1008.74 1009.12 1009.40 1009.62 1009.81 1009.99 1010.18 1010.38 1010.57 1010.76 1010.92 1011.04 1011.12 1011.15 1011.13 1011.08 1010.99 1010.88 1010.74 1010.58 1010.40 1010.17 1009.91 1009.61 1009.27 1008.91 1008.54 1008.17 1007.81 1007.49 1007.19 1006.92 1006.68 1006.44 1006.20 1005.95 1005.67
1004.50 1005.31 1006.12 1006.89 1007.58 1008.14 1008.59 1008.94 1009.20 1009.41 1009.60 1009.78 1009.99 1010.21 1010.42 1010.64 1010.82 1010.95 1011.02 1011.03 1010.98 1010.88 1010.73 1010.55 1010.34 1010.10 1009.84 1009.56 1009.25 1008.92 1008.57 1008.20 1007.82 1007.46 1007.11 1006.78 1006.48 1006.20 1005.94 1005.67 1005.39 1005.08 1004.76
1004.65 1005.42 1006.20 1006.93 1007.58 1008.11 1008.54 1008.86 1009.10 1009.30 1009.49 1009.69 1009.90 1010.12 1010.35 1010.56 1010.74 1010.85 1010.89 1010.86 1010.75 1010.58 1010.35 1010.08 1009.80 1009.49 1009.17 1008.84 1008.51 1008.16 1007.80 1007.44 1007.09 1006.74 1006.42 1006.11 1005.82 1005.54 1005.26 1004.97 1004.66 1004.32 1003.94
1004.93 1005.65 1006.38 1007.07 1007.68 1008.18 1008.58 1008.88 1009.12 1009.32 1009.51 1009.70 1009.91 1010.12 1010.34 1010.52 1010.65 1010.70 1010.68 1010.58 1010.39 1010.13 1009.83 1009.48 1009.13 1008.77 1008.41 1008.06 1007.71 1007.37 1007.04 1006.71 1006.38 1006.07 1005.78 1005.49 1005.21 1004.93 1004.65 1004.34 1004.01 1003.64 1003.24
1005.32 1005.99 1006.66 1007.30 1007.87 1008.34 1008.72 1009.02 1009.24 1009.44 1009.62 1009.80 1009.99 1010.17 1010.33 1010.45 1010.50 1010.48 1010.37 1010.17 1009.90 1009.56 1009.17 1008.77 1008.37 1007.98 1007.61 1007.26 1006.94 1006.63 1006.33 1006.04 1005.76 1005.48 1005.21 1004.94 1004.67 1004.40 1004.11 1003.80 1003.45 1003.06 1002.64
1005.79 1006.39 1007.01 1007.60 1008.13 1008.57 1008.93 1009.22 1009.44 1009.62 1009.79 1009.94 1010.08 1010.20 1010.29 1010.32 1010.28 1010.15 1009.94 1009.64 1009.28 1008.87 1008.43 1008.00 1007.58 1007.20 1006.85 1006.53 1006.25 1005.99 1005.74 1005.49 1005.24 1004.99 1004.74 1004.48 1004.20 1003.92 1003.62 1003.30 1002.94 1002.54 1002.10
1006.28 1006.83 1007.39 1007.94 1008.42 1008.84 1009.17 1009.44 1009.64 1009.80 1009.94 1010.04 1010.12 1010.16 1010.16 1010.09 1009.94 1009.71 1009.40 1009.02 1008.59 1008.13 1007.68 1007.24 1006.84 1006.50 1006.20 1005.94 1005.72 1005.51 1005.31 1005.10 1004.88 1004.63 1004.37 1004.10 1003.80 1003.50 1003.18 1002.83 1002.46 1002.05 1001.61
1006.76 1007.26 1007.78 1008.27 1008.71 1009.09 1009.39 1009.63 1009.80 1009.93 1010.02 1010.06 1010.07 1010.03 1009.92 1009.75 1009.50 1009.18 1008.78 1008.35 1007.88 1007.42 1006.97 1006.57 1006.23 1005.95 1005.72 1005.54 1005.38 1005.23 1005.07 1004.88 1004.66 1004.40 1004.12 1003.81 1003.48 1003.13 1002.77 1002.39 1002.00 1001.58 1001.14
1007.20 1007.67 1008.14 1008.58 1008.97 1009.29 1009.55 1009.74 1009.87 1009.95 1009.98 1009.96 1009.90 1009.76 1009.57 1009.31 1008.98 1008.59 1008.15 1007.69 1007.22 1006.79 1006.39 1006.06 1005.80 1005.60 1005.46 1005.35 1005.25 1005.14 1005.00 1004.82 1004.59 1004.30 1003.98 1003.62 1003.23 1002.83 1002.42 1002.01 1001.59 1001.16 1000.72
1007.62 1008.05 1008.46 1008.84 1009.16 1009.42 1009.62 1009.75 1009.82 1009.84 1009.81 1009.73 1009.59 1009.39 1009.13 1008.81 1008.43 1008.01 1007.56 1007.12 1006.69 1006.31 1005.99 1005.75 1005.58 1005.47 1005.40 1005.36 1005.31 1005.23 1005.11 1004.92 1004.66 1004.34 1003.96 1003.54 1003.10 1002.65 1002.20 1001.74 1001.30 1000.85 1000.40
Thickness
5763 5762 5761 5759 5755 5752 5748 5744 5741 5740 5736 5732 5728 5723 5720 5719 5717 5715 5712 5709 5706 5703 5699 5696 5692 5690 5687 5683 5681 5678 5676 5675 5674 5670 5669 5673 5675 5674 5673 5671 5670 5669 5668
5756 5754 5754 5752 5748 5745 5742 5738 5735 5733 5730 5726 5723 5719 5716 5713 5712 5710 5707 5705 5701 5698 5695 5690 5687 5685 5682 5679 5676 5673 5670 5669 5668 5663 5659 5658 5662 5664 5667 5665 5664 5663 5663
5748 5746 5745 5744 5743 5740 5737 5735 5731 5728 5725 5722 5718 5714 5709 5707 5704 5703 5701 5699 5696 5692 5689 5686 5683 5680 5678 5674 5671 5667 5663 5660 5660 5659 5653 5647 5647 5649 5655 5657 5657 5657 5655
5746 5742 5739 5737 5736 5735 5733 5730 5727 5723 5719 5716 5711 5706 5701 5698 5697 5697 5695 5693 5690 5688 5685 5682 5679 5676 5673 5669 5666 5663 5659 5655 5653 5653 5652 5648 5645 5640 5641 5646 5649 5649 5648
5743 5739 5736 5733 5733 5729 5727 5725 5722 5717 5714 5710 5706 5701 5698 5695 5693 5691 5689 5687 5685 5683 5681 5678 5675 5671 5667 5665 5662 5658 5654 5651 5648 5646 5645 5643 5642 5639 5633 5634 5638 5640 5641
5740 5737 5735 5732 5728 5726 5723 5719 5714 5710 5708 5704 5700 5695 5691 5688 5685 5682 5681 5680 5679 5678 5676 5673 5670 5666 5663 5661 5657 5654 5651 5648 5645 5643 5640 5637 5635 5633 5631 5629 5630 5630 5633
5736 5731 5729 5727 5724 5721 5718 5714 5709 5703 5702 5699 5695 5691 5687 5683 5679 5677 5675 5674 5673 5672 5670 5669 5665 5662 5659 5656 5653 5650 5647 5645 5641 5639 5637 5634 5632 5631 5628 5625 5623 5623 5626
5731 5727 5724 5722 5719 5716 5713 5708 5703 5698 5696 5693 5690 5686 5683 5679 5676 5673 5671 5669 5667 5666 5665 5662 5660 5657 5655 5653 5649 5646 5643 5641 5638 5636 5633 5630 5629 5627 5624 5621 5618 5616 5617
5726 5724 5721 5718 5715 5711 5707 5702 5696 5692 5689 5687 5684 5681 5678 5674 5670 5668 5666 5665 5663 5661 5660 5657 5655 5653 5651 5648 5645 5641 5639 5636 5634 5632 5629 5627 5625 5623 5621 5619 5615 5610 5608
5722 5720 5717 5714 5711 5706 5701 5696 5691 5687 5683 5681 5678 5675 5672 5669 5666 5664 5662 5660 5658 5656 5654 5652 5650 5648 5646 5644 5640 5637 5635 5632 5630 5627 5625 5623 5622 5620 5617 5615 5612 5609 5605
5717 5714 5712 5710 5707 5701 5695 5689 5686 5682 5678 5675 5672 5669 5666 5664 5662 5659 5657 5656 5654 5652 5650 5648 5646 5643 5641 5639 5636 5633 5631 5628 5625 5623 5621 5619 5618 5615 5613 5611 5608 5606 5603
5713 5711 5707 5703 5699 5693 5689 5684 5681 5677 5674 5671 5667 5664 5661 5659 5656 5654 5653 5651 5649 5647 5645 5644 5641 5639 5637 5634 5632 5629 5626 5623 5620 5618 5617 5615 5614 5611 5608 5606 5604 5602 5601
5707 5705 5701 5697 5692 5687 5683 5679 5675 5672 5670 5666 5662 5658 5655 5652 5650 5649 5647 5646 5644 5643 5641 5639 5636 5634 5632 5630 5628 5626 5623 5619 5616 5614 5612 5610 5609 5606 5604 5602 5599 5598 5598
5701 5698 5694 5690 5685 5681 5678 5674 5670 5667 5664 5661 5657 5653 5650 5648 5646 5645 5643 5642 5640 5638 5636 5634 5632 5630 5629 5626 5624 5621 5618 5615 5612 5610 5608 5607 5605 5602 5600 5598 5596 5594 5592
5696 5693 5689 5684 5680 5676 5673 5669 5666 5662 5659 5655 5652 5649 5647 5645 5643 5641 5640 5638 5637 5635 5633 5631 5629 5627 5625 5622 5618 5615 5613 5610 5608 5606 5605 5603 5602 5599 5596 5594 5591 5589 5587
5692 5689 5685 5680 5676 5672 5668 5664 5661 5658 5654 5650 5647 5646 5644 5642 5640 5639 5637 5635 5633 5631 5628 5626 5625 5623 5621 5616 5612 5609 5607 5605 5603 5602 5601 5600 5598 5596 5593 5590 5588 5585 5583
5689 5685 5681 5676 5672 5668 5664 5661 5658 5655 5651 5647 5645 5643 5641 5639 5638 5637 5635 5632 5629 5627 5624 5623 5621 5619 5615 5611 5608 5605 5602 5601 5600 5599 5597 5596 5595 5592 5589 5587 5585 5583 5581
5686 5682 5678 5673 5670 5667 5663 5659 5656 5652 5649 5646 5643 5641 5639 5638 5636 5634 5631 5629 5627 5624 5621 5620 5619 5616 5612 5608 5605 5602 5600 5599 5598 5597 5595 5592 5590 5587 5584 5584 5582 5581 5579
5684 5680 5676 5672 5668 5665 5661 5657 5653 5651 5647 5644 5642 5641 5639 5636 5634 5631 5629 5626 5624 5622 5620 5619 5617 5613 5610 5606 5602 5599 5598 5597 5596 5595 5593 5590 5586 5582 5580 5578 5577 5576 5575
5681 5677 5674 5670 5666 5662 5660 5655 5651 5649 5646 5644 5642 5640 5638 5635 5632 5629 5627 5625 5623 5621 5619 5617 5615 5613 5609 5605 5601 5596 5595 5594 5593 5591 5589 5586 5582 5578 5574 5571 5569 5568 5568
5677 5675 5671 5667 5663 5661 5657 5652 5650 5647 5647 5645 5643 5640 5636 5634 5632 5629 5626 5624 5622 5620 5618 5616 5614 5612 5608 5603 5599 5595 5592 5590 5588 5586 5584 5582 5577 5572 5569 5565 5563 5562 5560
5673 5671 5668 5664 5662 5660 5655 5651 5648 5648 5647 5645 5641 5639 5636 5634 5632 5628 5626 5624 5621 5618 5616 5614 5612 5610 5606 5601 5597 5592 5588 5584 5582 5580 5579 5576 5571 5567 5564 5561 5560 5558 5555
5670 5668 5664 5661 5659 5657 5654 5650 5648 5648 5645 5643 5640 5638 5635 5633 5631 5628 5625 5622 5620 5617 5615 5613 5609 5606 5603 5598 5593 5589 5585 5581 5577 5575 5572 5569 5565 5562 5561 5559 5556 5554 5552
5666 5665 5661 5658 5655 5654 5653 5651 5649 5647 5644 5641 5638 5636 5634 5632 5630 5627 5625 5622 5619 5616 5613 5609 5605 5602 5598 5594 5589 5585 5581 5577 5574 5570 5566 5564 5562 5560 5557 5555 5554 5551 5549
5664 5662 5659 5657 5654 5653 5652 5651 5649 5646 5642 5639 5637 5635 5634 5631 5629 5626 5623 5620 5617 5613 5608 5605 5601 5597 5592 5587 5581 5577 5575 5570 5565 5560 5559 5559 5558 5556 5554 5553 5551 5549 5547
5662 5660 5658 5656 5654 5653 5651 5650 5649 5646 5642 5638 5636 5635 5634 5632 5630 5626 5622 5618 5614 5610 5606 5602 5596 5592 5586 5581 5577 5573 5568 5563 5557 5553 5554 5553 5551 5549 5547 5545 5543 5541 5539